Preview of NWS' New Version of Forecast
This preview is not operational and should not be used for support decisions.

Regional Weather Roundup (RWR)

Issued by National Weather Service (NWS)

                            
000
ASUS43 KTOP 190359
RWRKS 

WEATHER ROUNDUP FOR KANSAS
NATIONAL WEATHER SERVICE GOODLAND KS
1100 PM CDT THU APR 18 2019

NOTE:  "FAIR" INDICATES FEW OR NO CLOUDS BELOW 12,000 FEET WITH NO
SIGNIFICANT WEATHER AND/OR OBSTRUCTIONS TO VISIBILITY.

KSZ001>006-013>018-027>032-041>047-190500-
NORTHWEST KANSAS
  
CITY           SKY/WX    TMP DP  RH WIND       PRES   REMARKS
GOODLAND       CLEAR     35  29  78 NE10      30.16R WCI  27          
HAYS           PTCLDY    50  34  54 N16       30.09R                  
HILL CITY      CLEAR     45  35  68 N13       30.12R                  
RUSSELL        PTCLDY    48  34  58 NW14      30.06R                  
$$

KSZ061>065-074>080-084>089-190500-
SOUTHWEST KANSAS
  
CITY           SKY/WX    TMP DP  RH WIND       PRES   REMARKS
DODGE CITY     PTCLDY    49  29  46 N10       30.11R                  
GARDEN CITY    PTCLDY    42  35  76 N12       30.14R                  
GREAT BEND       N/A     48  35  60 NW15      30.06R                  
LIBERAL        PTCLDY    40  31  70 W10       30.15R WCI  33          
$$

KSZ066>073-081>083-090>101-190500-
SOUTHEAST KANSAS
  
CITY           SKY/WX    TMP DP  RH WIND       PRES   REMARKS
CHANUTE        PTCLDY    53  42  66 N5        29.89R                  
COFFEYVILLE    LGT RAIN  55  44  66 N7        29.88R                  
HUTCHINSON     CLEAR     47  39  74 NW10      29.99R                  
MEDICINE LODGE   N/A     49  36  61 N12       30.02R                  
NEWTON         PTCLDY    49  38  65 NW15      29.97R                  
PARSONS          N/A     55  45  68 N3        29.90R                  
WICHITA INTL   PTCLDY    53  37  54 NW15      29.96R                  
WICHITA JABRA  PTCLDY    51  38  60 NW15      29.95R                  
WICHITA MCCONL PTCLDY    52  38  59 NW12      29.95R                  
WINFIELD       CLEAR     50  40  68 NW12      29.95R                  
$$

KSZ007>012-019>026-033>040-048>060-102>105-190500-
NORTHEAST KANSAS
  
CITY           SKY/WX    TMP DP  RH WIND       PRES   REMARKS
CONCORDIA        N/A    N/A N/A N/A MISG      30.04R                  
EMPORIA        CLOUDY    54  38  54 N13G23    29.92R                  
LAWRENCE       CLOUDY    55  39  54 N14       29.92R                  
MANHATTAN      PTCLDY    54  39  57 N13G28    29.98R                  
OLATHE IND     CLOUDY    53  41  63 N20       29.91R                  
OLATHE EXE     CLOUDY    53  39  59 N10       29.90R                  
SALINA         CLEAR     50  36  58 N20       30.02R                  
TOPEKA BILLARD CLOUDY    54  39  57 N13       29.93R                  
TOPEKA FORBES  CLOUDY    54  39  57 N12       29.93R                  
$$